JYH6703 ZBTJ-ZSPD

Flight info

Callsign JYH6703
Flight time 0h 47m
Altitude 31100
Route ZBTJ SID ELKUR W40 YQG W142 DALIM A593 VMB W161 SASAN STAR ZSPD
Aircraft B738/M-SDE2E3FGHIRWXY/LB1

Departure

Time 2026-05-05 05:22
Airport Tianjin Binhai International Airport (ZBTJ)

Arrival

Time 2026-05-05 06:10
Airport Shanghai Pudong International Airport (ZSPD)
Time Latitude Longitude Altitude Speed Heading
2026-05-05 05:05 39.12850 117.35575 18 ft 0 kts 32°
2026-05-05 05:14 39.12808 117.35541 20 ft 3 kts 17°
2026-05-05 05:14 39.12768 117.35568 18 ft 3 kts 297°
2026-05-05 05:15 39.12761 117.35586 21 ft 2 kts 297°
2026-05-05 05:16 39.12758 117.35524 18 ft 8 kts 230°
2026-05-05 05:16 39.12616 117.35481 18 ft 14 kts 186°
2026-05-05 05:16 39.12379 117.35462 19 ft 20 kts 183°
2026-05-05 05:16 39.12222 117.35182 18 ft 21 kts 243°
2026-05-05 05:17 39.12262 117.34981 18 ft 12 kts 335°
2026-05-05 05:17 39.12415 117.34887 18 ft 12 kts 333°
2026-05-05 05:17 39.12582 117.34790 18 ft 16 kts 335°
2026-05-05 05:17 39.12751 117.34681 18 ft 20 kts 333°
2026-05-05 05:18 39.12867 117.34608 19 ft 18 kts 335°
2026-05-05 05:18 39.12978 117.34543 20 ft 17 kts 335°
2026-05-05 05:18 39.13085 117.34479 18 ft 17 kts 335°
2026-05-05 05:18 39.13188 117.34418 18 ft 16 kts 335°
2026-05-05 05:19 39.13286 117.34359 18 ft 15 kts 333°
2026-05-05 05:19 39.13380 117.34299 19 ft 15 kts 333°
2026-05-05 05:19 39.13468 117.34242 19 ft 14 kts 333°
2026-05-05 05:19 39.13554 117.34187 20 ft 13 kts 335°
2026-05-05 05:20 39.13637 117.34137 20 ft 13 kts 335°
2026-05-05 05:20 39.13744 117.34073 19 ft 12 kts 335°
2026-05-05 05:20 39.13781 117.33974 19 ft 0 kts 246°
2026-05-05 05:20 39.13777 117.33962 19 ft 4 kts 244°
2026-05-05 05:21 39.13751 117.33893 20 ft 10 kts 244°
2026-05-05 05:21 39.13687 117.33852 20 ft 13 kts 167°
2026-05-05 05:21 39.13601 117.33901 20 ft 14 kts 154°
2026-05-05 05:21 39.13456 117.33990 17 ft 51 kts 154°
2026-05-05 05:22 39.12848 117.34364 18 ft 140 kts 154°
2026-05-05 05:22 39.11793 117.35018 387 ft 185 kts 155°
2026-05-05 05:22 39.10694 117.35703 1726 ft 164 kts 159°
2026-05-05 05:22 39.09648 117.36351 2846 ft 174 kts 159°
2026-05-05 05:23 39.07377 117.37774 3756 ft 221 kts 160°
2026-05-05 05:23 39.04343 117.39616 4855 ft 253 kts 159°
2026-05-05 05:23 39.01142 117.41588 6831 ft 256 kts 158°
2026-05-05 05:23 38.97862 117.43640 8576 ft 268 kts 151°
2026-05-05 05:24 38.96101 117.47738 10300 ft 280 kts 82°
2026-05-05 05:24 38.97712 117.52176 11978 ft 283 kts 60°
2026-05-05 05:24 38.98228 117.57176 13781 ft 291 kts 92°
2026-05-05 05:24 38.98564 117.62385 15288 ft 295 kts 76°
2026-05-05 05:25 38.99023 117.67686 16795 ft 307 kts 99°
2026-05-05 05:25 38.96346 117.71781 18240 ft 318 kts 162°
2026-05-05 05:25 38.91992 117.71556 19532 ft 319 kts 194°
2026-05-05 05:25 38.87782 117.69698 20733 ft 324 kts 218°
2026-05-05 05:26 38.85634 117.64684 21138 ft 345 kts 271°
2026-05-05 05:26 38.85989 117.58266 21450 ft 378 kts 276°
2026-05-05 05:26 38.87230 117.51524 21931 ft 399 kts 295°
2026-05-05 05:26 38.89627 117.44990 22897 ft 409 kts 294°
2026-05-05 05:27 38.91614 117.38103 23926 ft 414 kts 285°
2026-05-05 05:27 38.91015 117.30788 24797 ft 430 kts 244°
2026-05-05 05:27 38.84652 117.17644 26444 ft 437 kts 250°
2026-05-05 05:28 38.82281 117.10437 27265 ft 442 kts 249°
2026-05-05 05:28 38.79539 117.03327 27999 ft 448 kts 245°
2026-05-05 05:28 38.76580 116.96274 28890 ft 448 kts 245°
2026-05-05 05:28 38.73657 116.89294 30007 ft 442 kts 245°
2026-05-05 05:29 38.70722 116.82376 30747 ft 441 kts 245°
2026-05-05 05:29 38.67761 116.75410 30891 ft 449 kts 245°
2026-05-05 05:29 38.64374 116.68636 30830 ft 462 kts 229°
2026-05-05 05:29 38.58613 116.65242 30850 ft 477 kts 187°
2026-05-05 05:30 38.45641 116.64852 30862 ft 459 kts 199°
2026-05-05 05:30 38.39335 116.63300 30850 ft 467 kts 187°
2026-05-05 05:30 38.32807 116.62905 30871 ft 472 kts 186°
2026-05-05 05:31 38.26183 116.63155 30852 ft 484 kts 171°
2026-05-05 05:31 38.19786 116.66025 30873 ft 490 kts 161°
2026-05-05 05:31 38.07608 116.69734 30873 ft 485 kts 172°
2026-05-05 05:31 37.94641 116.74466 30846 ft 483 kts 161°
2026-05-05 05:32 37.69540 116.85184 30898 ft 474 kts 166°
2026-05-05 05:32 37.43844 116.94600 30912 ft 488 kts 165°
2026-05-05 05:33 37.18050 117.05198 30896 ft 485 kts 160°
2026-05-05 05:33 37.05774 117.11173 30883 ft 474 kts 161°
2026-05-05 05:33 36.95698 117.15808 30925 ft 473 kts 162°
2026-05-05 05:34 36.83171 117.21346 30929 ft 481 kts 168°
2026-05-05 05:34 36.76545 117.21617 30947 ft 476 kts 189°
2026-05-05 05:34 36.69900 117.21051 30924 ft 482 kts 182°
2026-05-05 05:35 36.56565 117.21385 30922 ft 472 kts 182°
2026-05-05 05:35 36.43503 117.21325 30946 ft 468 kts 181°
2026-05-05 05:36 36.37049 117.22619 30950 ft 476 kts 162°
2026-05-05 05:36 36.30818 117.25512 30951 ft 482 kts 162°
2026-05-05 05:36 36.12604 117.32114 30952 ft 487 kts 165°
2026-05-05 05:37 35.86823 117.41736 30952 ft 476 kts 164°
2026-05-05 05:37 35.61592 117.51146 30995 ft 475 kts 164°
2026-05-05 05:38 35.36051 117.60605 31026 ft 488 kts 164°
2026-05-05 05:38 35.10156 117.70133 30970 ft 479 kts 162°
2026-05-05 05:39 34.84829 117.79388 31027 ft 476 kts 163°
2026-05-05 05:39 34.59093 117.88661 31015 ft 488 kts 163°
2026-05-05 05:40 34.33178 117.97925 30988 ft 480 kts 163°
2026-05-05 05:40 34.22392 118.02944 30956 ft 470 kts 143°
2026-05-05 05:40 34.17543 118.08197 31026 ft 470 kts 135°
2026-05-05 05:41 34.01087 118.23025 31059 ft 486 kts 143°
2026-05-05 05:41 33.64069 118.55651 30984 ft 481 kts 144°
2026-05-05 05:42 33.42559 118.74146 30961 ft 469 kts 145°
2026-05-05 05:42 33.21583 118.92379 31056 ft 466 kts 145°
2026-05-05 05:42 32.79166 119.28998 31112 ft 478 kts 146°
2026-05-05 05:43 32.36524 119.66128 31059 ft 474 kts 146°
2026-05-05 05:43 31.94404 120.02074 31077 ft 462 kts 147°
2026-05-05 05:44 31.65440 120.26612 31130 ft 469 kts 149°
2026-05-05 05:44 31.60101 120.31051 30234 ft 472 kts 143°
2026-05-05 05:44 31.56612 120.37572 28492 ft 484 kts 103°
2026-05-05 05:45 31.55540 120.45234 27312 ft 470 kts 105°
2026-05-05 05:45 31.53564 120.51932 26234 ft 458 kts 114°
2026-05-05 05:45 31.52342 120.55356 25674 ft 453 kts 114°
2026-05-05 05:45 31.51145 120.58756 25093 ft 449 kts 113°
2026-05-05 05:46 31.50010 120.62140 24533 ft 445 kts 112°
2026-05-05 05:46 31.48929 120.65530 23957 ft 442 kts 111°
2026-05-05 05:46 31.47889 120.68905 23329 ft 439 kts 111°
2026-05-05 05:46 31.46873 120.72262 22689 ft 435 kts 110°
2026-05-05 05:47 31.45888 120.75546 22100 ft 431 kts 110°
2026-05-05 05:47 31.44902 120.78838 21532 ft 426 kts 110°
2026-05-05 05:47 31.43925 120.82090 20966 ft 422 kts 110°
2026-05-05 05:47 31.42546 120.86667 20188 ft 416 kts 110°
2026-05-05 05:48 31.40628 120.93013 19109 ft 410 kts 110°
2026-05-05 05:48 31.38762 120.99172 18733 ft 387 kts 111°
2026-05-05 05:48 31.37029 121.04886 18827 ft 363 kts 111°
2026-05-05 05:48 31.35315 121.10398 17695 ft 362 kts 115°
2026-05-05 05:49 31.32046 121.14831 15499 ft 369 kts 148°
2026-05-05 05:49 31.27797 121.18259 13701 ft 371 kts 143°
2026-05-05 05:49 31.24107 121.22076 13185 ft 340 kts 139°
2026-05-05 05:49 31.20645 121.25725 12764 ft 342 kts 140°
2026-05-05 05:50 31.16856 121.29590 12292 ft 379 kts 141°
2026-05-05 05:50 31.13012 121.33835 11661 ft 378 kts 128°
2026-05-05 05:50 31.11940 121.39531 11077 ft 363 kts 76°
2026-05-05 05:50 31.13648 121.44874 10555 ft 343 kts 75°
2026-05-05 05:51 31.12911 121.50038 10079 ft 316 kts 119°
2026-05-05 05:51 31.11705 121.53038 9882 ft 297 kts 100°
2026-05-05 05:51 31.11838 121.55354 9730 ft 283 kts 73°
2026-05-05 05:51 31.12351 121.57535 9533 ft 275 kts 78°
2026-05-05 05:52 31.12637 121.59712 9313 ft 268 kts 84°
2026-05-05 05:52 31.12806 121.61845 9128 ft 260 kts 81°
2026-05-05 05:52 31.13486 121.63738 8948 ft 250 kts 51°
2026-05-05 05:52 31.14791 121.64997 8758 ft 241 kts 24°
2026-05-05 05:53 31.16371 121.65512 8542 ft 234 kts
2026-05-05 05:53 31.17967 121.65311 8332 ft 230 kts 344°
2026-05-05 05:53 31.19500 121.64778 8131 ft 231 kts 340°
2026-05-05 05:53 31.21019 121.64190 7924 ft 234 kts 340°
2026-05-05 05:54 31.22560 121.63590 7700 ft 232 kts 340°
2026-05-05 05:54 31.24079 121.63002 7452 ft 227 kts 340°
2026-05-05 05:54 31.25564 121.62430 7196 ft 223 kts 340°
2026-05-05 05:54 31.27026 121.61872 6936 ft 219 kts 341°
2026-05-05 05:55 31.28456 121.61326 6900 ft 219 kts 340°
2026-05-05 05:55 31.29952 121.60753 6687 ft 228 kts 341°
2026-05-05 05:55 31.31443 121.60187 6469 ft 223 kts 341°
2026-05-05 05:55 31.32898 121.59635 6345 ft 213 kts 341°
2026-05-05 05:56 31.34255 121.59120 6520 ft 197 kts 341°
2026-05-05 05:56 31.35529 121.58636 6595 ft 194 kts 340°
2026-05-05 05:56 31.36812 121.58149 6376 ft 194 kts 340°
2026-05-05 05:56 31.38097 121.57661 6092 ft 195 kts 340°
2026-05-05 05:57 31.39443 121.57422 5681 ft 201 kts
2026-05-05 05:57 31.40661 121.58224 5163 ft 207 kts 52°
2026-05-05 05:57 31.41212 121.59716 4855 ft 199 kts 84°
2026-05-05 05:57 31.41112 121.61287 4515 ft 192 kts 111°
2026-05-05 05:58 31.40506 121.62641 4191 ft 185 kts 127°
2026-05-05 05:58 31.39810 121.63903 3875 ft 182 kts 125°
2026-05-05 05:58 31.39172 121.65101 3680 ft 177 kts 126°
2026-05-05 05:58 31.38494 121.66324 3550 ft 184 kts 127°
2026-05-05 05:59 31.37778 121.67582 3395 ft 186 kts 128°
2026-05-05 05:59 31.37055 121.68840 3224 ft 186 kts 128°
2026-05-05 05:59 31.36338 121.70077 3077 ft 181 kts 128°
2026-05-05 05:59 31.35637 121.71307 3009 ft 184 kts 129°
2026-05-05 06:00 31.34659 121.72208 2983 ft 179 kts 166°
2026-05-05 06:00 31.33447 121.72185 3000 ft 176 kts 200°
2026-05-05 06:00 31.32442 121.71370 2984 ft 180 kts 229°
2026-05-05 06:00 31.31946 121.70031 2991 ft 183 kts 258°
2026-05-05 06:01 31.32175 121.68565 2987 ft 188 kts 296°
2026-05-05 06:01 31.32865 121.67258 3001 ft 190 kts 298°
2026-05-05 06:01 31.33564 121.65926 2989 ft 194 kts 297°
2026-05-05 06:01 31.34277 121.64576 2993 ft 194 kts 297°
2026-05-05 06:02 31.34996 121.63251 2968 ft 193 kts 305°
2026-05-05 06:02 31.36099 121.62395 2984 ft 196 kts 346°
2026-05-05 06:02 31.37426 121.62562 2984 ft 199 kts 27°
2026-05-05 06:02 31.38406 121.63648 2972 ft 194 kts 67°
2026-05-05 06:03 31.38645 121.65142 2977 ft 185 kts 103°
2026-05-05 06:03 31.38359 121.66078 2989 ft 180 kts 124°
2026-05-05 06:03 31.37713 121.67319 2984 ft 182 kts 126°
2026-05-05 06:03 31.37047 121.68593 2950 ft 186 kts 126°
2026-05-05 06:04 31.36140 121.70301 2944 ft 183 kts 129°
2026-05-05 06:04 31.35168 121.71175 2940 ft 174 kts 162°
2026-05-05 06:04 31.34422 121.71511 2936 ft 174 kts 161°
2026-05-05 06:04 31.33296 121.72014 2951 ft 172 kts 163°
2026-05-05 06:05 31.32181 121.72471 2932 ft 167 kts 164°
2026-05-05 06:05 31.31107 121.72892 2940 ft 159 kts 165°
2026-05-05 06:05 31.30060 121.73295 2837 ft 157 kts 165°
2026-05-05 06:05 31.29043 121.73682 2653 ft 149 kts 165°
2026-05-05 06:06 31.28083 121.74048 2466 ft 141 kts 165°
2026-05-05 06:06 31.27165 121.74396 2297 ft 136 kts 165°
2026-05-05 06:06 31.26278 121.74732 2154 ft 131 kts 164°
2026-05-05 06:06 31.25408 121.75063 1953 ft 129 kts 164°
2026-05-05 06:07 31.24565 121.75395 1840 ft 133 kts 161°
2026-05-05 06:07 31.23669 121.75742 1561 ft 129 kts 166°
2026-05-05 06:07 31.22794 121.76058 1418 ft 133 kts 165°
2026-05-05 06:07 31.21905 121.76407 1221 ft 141 kts 164°
2026-05-05 06:08 31.20986 121.76745 1041 ft 136 kts 164°
2026-05-05 06:08 31.20103 121.77076 863 ft 131 kts 163°
2026-05-05 06:08 31.19231 121.77407 691 ft 134 kts 162°
2026-05-05 06:08 31.18320 121.77754 516 ft 138 kts 163°
2026-05-05 06:09 31.17417 121.78104 305 ft 140 kts 161°
2026-05-05 06:09 31.16470 121.78469 138 ft 144 kts 162°
2026-05-05 06:09 31.15548 121.78818 27 ft 130 kts 162°
2026-05-05 06:09 31.14791 121.79102 26 ft 90 kts 162°
2026-05-05 06:10 31.14399 121.79249 22 ft 29 kts 162°
2026-05-05 06:10 31.14237 121.79316 20 ft 24 kts 152°
2026-05-05 06:10 31.14118 121.79422 21 ft 21 kts 132°
2026-05-05 06:10 31.14042 121.79520 21 ft 11 kts 134°
2026-05-05 06:11 31.14017 121.79592 22 ft 8 kts 78°
2026-05-05 06:11 31.14034 121.79654 23 ft 8 kts 72°
2026-05-05 06:11 31.14047 121.79721 22 ft 10 kts 82°
2026-05-05 06:11 31.14069 121.79817 22 ft 15 kts 71°
2026-05-05 06:12 31.14106 121.79944 23 ft 17 kts 71°
2026-05-05 06:12 31.14139 121.80073 22 ft 16 kts 73°
2026-05-05 06:12 31.14174 121.80197 24 ft 16 kts 71°
2026-05-05 06:12 31.14178 121.80305 24 ft 13 kts 137°
2026-05-05 06:13 31.14092 121.80329 22 ft 13 kts 164°
2026-05-05 06:13 31.14018 121.80345 23 ft 5 kts 208°
2026-05-05 06:13 31.14009 121.80304 22 ft 5 kts 263°
2026-05-05 06:13 31.14001 121.80273 22 ft 0 kts 251°